"2010-12-26 00:00:00",455341,4.449,147.4,7.005,1.29,9.26,102.4785,5.625,6.713,22.44,0,109.8,13.43,6.40,109.4
"2010-12-26 00:00:30",455342,5.01,150,5.841,1.108,10.49,102.4754,5.617,6.717,22.49,0,109.8,13.43,6.39,112.0
"2010-12-26 00:01:00",455343,4.317,148.5,6.528,1.27,9.76,102.4754,5.617,6.673,22.45,0,109.8,13.43,6.39,110.5
"2010-12-26 00:01:30",455344,3.688,146.3,5.821,1.14,8.62,102.4754,5.617,6.686,22.47,0,109.8,13.44,6.39,108.3
"2010-12-26 00:02:00",455345,3.809,146.4,6.273,1.178,8.2,102.4754,5.617,6.685,22.47,0,109.8,13.43,6.39,108.4
"2010-12-26 00:02:30",455346,3.83,145.9,6.186,1.26,7.721,102.4754,5.617,6.476,22.2,0,109.8,13.44,6.39,107.9
"2010-12-26 00:03:00",455347,3.652,145.1,5.668,1.144,7.197,102.4754,5.617,6.47,22.02,0,109.8,13.43,6.39,107.1
"2010-12-26 00:03:30",455348,4.311,149.9,7.192,1.291,9.07,102.4754,5.617,6.638,21.72,0,109.8,13.43,6.39,111.9
"2010-12-26 00:04:00",455349,4.994,152.1,4.703,0.995,10.89,102.4754,5.617,6.683,21.6,0,109.8,13.43,6.39,114.1
"2010-12-26 00:04:30",455350,3.799,146,5.375,1.244,8.34,102.4754,5.617,6.628,21.67,0,109.8,13.43,6.39,108.0
"2010-12-26 00:05:00",455351,4.226,147.7,6.534,1.234,8.89,102.4754,5.617,6.648,21.62,0,109.8,13.43,6.39,109.7
"2010-12-26 00:05:30",455352,3.771,145.6,6.03,1.2,7.762,102.4754,5.617,6.626,21.37,0,109.8,13.43,6.39,107.6
"2010-12-26 00:06:00",455353,3.852,148.7,6.863,1.178,7.514,102.4754,5.617,6.517,20.95,0,109.8,13.43,6.39,110.7
"2010-12-26 00:06:30",455354,3.528,148,4.959,1.086,7.053,102.4754,5.617,6.58,20.85,0,109.8,13.43,6.39,110.0
"2010-12-26 00:07:00",455355,4.48,154.3,5.881,1.246,9.76,102.476,5.619,6.7,20.92,0,109.8,13.43,6.39,116.3
"2010-12-26 00:07:30",455356,3.845,154.4,6.101,1.209,9.35,102.4769,5.621,6.676,20.87,0,109.8,13.44,6.39,116.4
"2010-12-26 00:08:00",455357,3.809,153.7,6.336,1.242,8.49,102.478,5.624,6.663,20.77,0,109.8,13.44,6.40,115.7
"2010-12-26 00:08:30",455358,4.43,156.8,6.2,1.183,9.23,102.4783,5.625,6.664,20.71,0,109.8,13.44,6.40,118.8
"2010-12-26 00:09:00",455359,2.828,147.8,1.179,0.235,5.976,102.4809,5.631,6.478,20.39,0,109.8,13.44,6.40,109.8
"2010-12-26 00:09:30",455360,3.913,154.5,7.022,1.256,8.13,102.4827,5.636,6.607,20.46,0,109.8,13.44,6.41,116.5
"2010-12-26 00:10:00",455361,3.544,155.5,6.059,1.223,8.5,102.4893,5.653,6.647,20.55,0,109.9,13.44,6.42,117.5
"2010-12-26 00:10:30",455362,3.877,155.7,7.424,1.29,8.82,102.4905,5.656,6.574,20.53,0,109.8,13.44,6.43,117.7
"2010-12-26 00:11:00",455363,4.004,156.5,6.518,1.284,9.45,102.4957,5.669,6.712,20.67,0,109.8,13.45,6.44,118.5
"2010-12-26 00:11:30",455364,4.315,153.4,6.527,1.215,9.92,102.4989,5.677,6.763,20.7,0,109.8,13.45,6.45,115.4
"2010-12-26 00:12:00",455365,3.823,147.7,6.228,1.272,7.863,102.4986,5.677,6.544,20.4,0,109.8,13.45,6.45,109.7
"2010-12-26 00:12:30",455366,2.7,145,0.872,0.039,6.189,102.5012,5.683,6.539,20.48,0,109.9,13.48,6.46,107.0
"2010-12-26 00:13:00",455367,3.827,150.2,6.328,1.275,8.42,102.5032,5.688,6.625,20.63,0,109.8,13.45,6.46,112.2
"2010-12-26 00:13:30",455368,3.555,149.8,6.559,1.187,8.35,102.501,5.683,6.642,20.72,0,109.8,13.45,6.45,111.8
"2010-12-26 00:14:00",455369,3.424,149,5.955,1.154,7.884,102.5019,5.685,6.557,20.7,0,109.8,13.45,6.46,111.0
"2010-12-26 00:14:30",455370,4.549,154.5,5.522,1.193,10.31,102.5008,5.682,6.732,20.94,0,109.8,13.45,6.45,116.5
"2010-12-26 00:15:00",455371,4.253,149.8,6.626,1.269,9.17,102.4972,5.673,6.695,20.85,0,109.8,13.45,6.44,111.8
"2010-12-26 00:15:30",455372,4.103,147.4,6.451,1.269,8.9,102.4844,5.64,6.583,20.65,0,109.8,13.45,6.41,109.4
"2010-12-26 00:16:00",455373,3.38,142.7,5.548,1.12,6.992,102.4762,5.619,6.54,20.58,0,109.8,13.45,6.39,104.7
"2010-12-26 00:16:30",455374,3.904,144.9,6.15,1.264,8.15,102.4762,5.619,6.531,20.51,0,109.8,13.45,6.39,106.9
"2010-12-26 00:17:00",455375,3.302,143.2,4.658,0.965,7.139,102.4762,5.619,6.445,20.45,0,109.8,13.46,6.39,105.2
"2010-12-26 00:17:30",455376,4.181,149.7,5.726,1.229,9.67,102.4762,5.619,6.642,20.8,0,109.8,13.46,6.39,111.7
"2010-12-26 00:18:00",455377,4.773,149.3,5.508,1.029,10.43,102.4762,5.619,6.711,20.92,0,109.8,13.46,6.39,111.3
"2010-12-26 00:18:30",455378,3.601,142.8,7.083,1.164,8.37,102.476,5.619,6.634,20.9,0,109.8,13.46,6.39,104.8
"2010-12-26 00:19:00",455379,3.495,142.7,5.634,1.131,7.52,102.4638,5.588,6.525,20.95,0,109.8,13.46,6.36,104.7
"2010-12-26 00:19:30",455380,4.007,146.6,5.994,1.256,8.19,102.4508,5.554,6.471,20.97,0,109.8,13.45,6.33,108.6
"2010-12-26 00:20:00",455381,3.236,144.9,4.799,0.784,6.973,102.4426,5.534,6.529,21.49,0,109.8,13.45,6.30,106.9
"2010-12-26 00:20:30",455382,4.163,147.7,6.888,1.28,8.15,102.4423,5.533,6.471,21.61,0,109.8,13.45,6.30,109.7
"2010-12-26 00:21:00",455383,4.779,151.4,6.229,1.211,10.07,102.4423,5.533,6.641,21.99,0,109.8,13.45,6.30,113.4
"2010-12-26 00:21:30",455384,5.361,153,4.5,0.706,11.2,102.4423,5.533,6.651,22.09,0,109.8,13.45,6.30,115.0
"2010-12-26 00:22:00",455385,3.73,142.9,5.74,1.093,7.389,102.4423,5.533,6.54,21.82,0,109.8,13.45,6.30,104.9
"2010-12-26 00:22:30",455386,4.055,143.6,6.895,1.266,8.09,102.4392,5.525,6.493,21.6,0,109.8,13.45,6.30,105.6
"2010-12-26 00:23:00",455387,3.509,140.5,5.375,0.963,7.174,102.4296,5.5,6.513,21.61,0,109.8,13.45,6.27,102.5
"2010-12-26 00:23:30",455388,3.065,136.5,0.689,0.033,6.441,102.4251,5.489,6.342,21.38,0,109.8,13.48,6.26,98.5
"2010-12-26 00:24:00",455389,5.027,145.4,5.99,1.047,10.64,102.4228,5.483,6.584,21.41,0,109.9,13.45,6.25,107.4
"2010-12-26 00:24:30",455390,5.199,147.8,2.853,0.874,11.1,102.4112,5.453,6.68,21.37,0,109.8,13.46,6.22,109.8
"2010-12-26 00:25:00",455391,4.799,144.9,6.126,1.118,9.7,102.4084,5.446,6.495,21.2,0,109.8,13.46,6.22,106.9
"2010-12-26 00:25:30",455392,3.922,139.9,6.493,1.235,8.03,102.4084,5.446,6.455,21.12,0,109.8,13.46,6.22,101.9
"2010-12-26 00:26:00",455393,3.692,138.2,6.227,1.255,7.801,102.4084,5.446,6.466,20.92,0,109.8,13.46,6.22,100.2
"2010-12-26 00:26:30",455394,2.833,133.3,0.491,0.023,6.037,102.4016,5.429,6.294,20.6,0,109.8,13.5,6.20,95.3
"2010-12-26 00:27:00",455395,3.632,137.3,6.065,1.185,7.637,102.3881,5.394,6.387,20.63,0,109.8,13.46,6.17,99.3
"2010-12-26 00:27:30",455396,5.073,145.2,3.093,0.805,10.96,102.3762,5.364,6.549,20.67,0,109.8,13.46,6.13,107.2
"2010-12-26 00:28:00",455397,4.651,141.4,6.169,1.042,9.89,102.3745,5.36,6.467,20.47,0,109.8,13.46,6.13,103.4
"2010-12-26 00:28:30",455398,3.616,135.5,6.25,1.207,7.95,102.3734,5.357,6.467,20.55,0,109.8,13.46,6.13,97.5
"2010-12-26 00:29:00",455399,3.777,134.4,7.662,1.153,7.42,102.3607,5.324,6.297,20.51,0,109.9,13.46,6.10,96.4
"2010-12-26 00:29:30",455400,2.982,128.9,2.857,0.142,5.782,102.3426,5.278,6.242,21.2,0,109.8,13.5,6.05,90.9
"2010-12-26 00:30:00",455401,3.517,133.4,4.897,1.061,6.87,102.342,5.277,6.254,21.22,0,109.8,13.46,6.05,95.4
"2010-12-26 00:30:30",455402,4.922,138.4,5.637,1.184,10.19,102.331,5.248,6.372,22,0,109.8,13.46,6.02,100.4
"2010-12-26 00:31:00",455403,5.1,142.9,2.907,0.795,10.81,102.312,5.2,6.447,21.76,0,109.8,13.47,5.97,104.9
"2010-12-26 00:31:30",455404,3.871,138.1,6.328,1.256,8.32,102.3104,5.196,6.318,21.44,0,109.8,13.46,5.97,100.1
"2010-12-26 00:32:00",455405,3.715,136.2,5.037,1.173,7.776,102.3121,5.2,6.246,21.45,0,109.8,13.46,5.97,98.2
"2010-12-26 00:32:30",455406,2.98,131.7,3.514,0.783,5.84,102.3133,5.203,6.102,21.46,0,109.8,13.46,5.97,93.7
"2010-12-26 00:33:00",455407,2.667,132.3,0.982,0.067,5.843,102.3145,5.206,6.12,21.6,0,109.8,13.5,5.98,94.3
"2010-12-26 00:33:30",455408,3.53,138.9,6.283,1.217,8.41,102.3173,5.214,6.277,22.09,0,109.8,13.47,5.98,100.9
"2010-12-26 00:34:00",455409,4.86,144.3,5.113,0.896,10.8,102.3199,5.22,6.387,22.41,0,109.8,13.47,5.99,106.3
"2010-12-26 00:34:30",455410,4.838,146.4,4.645,0.893,10.41,102.3197,5.22,6.358,22.72,0,109.8,13.47,5.99,108.4
"2010-12-26 00:35:00",455411,4.622,145.7,5.037,1.043,9.96,102.3129,5.202,6.242,23.25,0,109.8,13.47,5.97,107.7
"2010-12-26 00:35:30",455412,2.833,136.2,4.582,0.873,6.522,102.3065,5.186,6.188,23.2,0,109.8,13.47,5.96,98.2
"2010-12-26 00:36:00",455413,2.419,134.5,1.056,0.05,5.589,102.305,5.182,6.046,23.12,0,109.8,13.5,5.95,96.5
"2010-12-26 00:36:30",455414,2.452,136.9,0.784,0.085,5.984,102.2983,5.165,6.031,24,0,109.8,13.5,5.94,98.9
"2010-12-26 00:37:00",455415,3.885,144.4,6.753,1.299,9.21,102.2915,5.148,6.285,25.26,0,109.8,13.46,5.92,106.4
"2010-12-26 00:37:30",455416,4.689,149.1,5.263,0.897,10.72,102.2904,5.145,6.296,25.48,0,109.8,13.46,5.91,111.1
"2010-12-26 00:38:00",455417,4.698,150.9,4.667,0.889,10.49,102.2912,5.147,6.257,25.41,0,109.8,13.46,5.92,112.9
"2010-12-26 00:38:30",455418,3.52,146.3,6.346,1.183,7.598,102.2918,5.148,6.054,24.85,0,109.8,13.46,5.92,108.3
"2010-12-26 00:39:00",455419,3.132,146.3,6.214,1.089,7.331,102.2893,5.142,6.127,25.03,0,109.8,13.46,5.91,108.3
"2010-12-26 00:39:30",455420,2.486,142.7,0.49,0.032,5.616,102.2806,5.12,5.978,25.68,0,109.8,13.5,5.89,104.7
"2010-12-26 00:40:00",455421,3.048,145.4,5.026,1.037,6.785,102.2693,5.091,5.971,26.09,0,109.8,13.46,5.86,107.4
"2010-12-26 00:40:30",455422,3.881,150.8,6.192,1.252,9.56,102.2639,5.077,6.219,26.64,0,109.8,13.47,5.85,112.8
"2010-12-26 00:41:00",455423,4.327,151.8,6.022,1.101,10.2,102.2654,5.081,6.2,25.83,0,109.8,13.47,5.85,113.8
"2010-12-26 00:41:30",455424,4.501,151.8,5.406,0.97,9.85,102.2654,5.081,6.19,24.97,0,109.8,13.47,5.85,113.8
"2010-12-26 00:42:00",455425,2.94,144.9,5.61,1.083,7.49,102.2674,5.086,6.172,24.63,0,109.8,13.47,5.86,106.9
"2010-12-26 00:42:30",455426,2.513,142.3,3.634,0.782,5.792,102.2784,5.114,5.94,24.24,0,109.8,13.47,5.88,104.3
"2010-12-26 00:43:00",455427,2.593,143.1,4.515,0.869,6.391,102.2849,5.131,5.948,24.15,0,109.8,13.47,5.90,105.1
"2010-12-26 00:43:30",455428,2.663,143.5,3.861,0.871,6.697,102.2889,5.141,6.054,24.79,0,109.8,13.47,5.91,105.5
"2010-12-26 00:44:00",455429,4.061,152.1,5.534,1.133,9.89,102.286,5.134,6.209,25.66,0,109.8,13.48,5.90,114.1
"2010-12-26 00:44:30",455430,4.107,152,5.853,1.171,9.93,102.2835,5.127,6.226,26.38,0,109.7,13.48,5.90,114.0
"2010-12-26 00:45:00",455431,4.171,152.1,6.073,1.189,9.39,102.2832,5.127,6.215,26.52,0,109.7,13.48,5.90,114.1
"2010-12-26 00:45:30",455432,2.868,145.1,5.227,1.047,6.63,102.2856,5.132,5.984,26.54,0,109.8,13.48,5.90,107.1
"2010-12-26 00:46:00",455433,2.376,144,0.536,0.039,5.611,102.285,5.131,5.961,26.36,0,109.8,13.51,5.90,106.0
"2010-12-26 00:46:30",455434,3.247,149.7,6.094,1.196,7.291,102.2811,5.121,6.015,26.97,0,109.8,13.48,5.89,111.7
"2010-12-26 00:47:00",455435,3.475,151.6,6.548,1.241,7.891,102.2757,5.107,6.119,27.17,0,109.8,13.48,5.88,113.6
"2010-12-26 00:47:30",455436,3.545,152.8,6.452,1.251,8.54,102.2741,5.103,6.163,27.29,0,109.8,13.48,5.87,114.8
"2010-12-26 00:48:00",455437,4.294,158.9,5.508,1.144,9.83,102.2735,5.102,6.211,26.91,0,109.8,13.48,5.87,120.9
"2010-12-26 00:48:30",455438,4.154,159.6,5.229,1.189,9.35,102.2735,5.102,6.199,26.27,0,109.7,13.48,5.87,121.6
"2010-12-26 00:49:00",455439,2.718,151.4,4.699,0.972,6.205,102.2735,5.102,5.986,25.89,0,109.8,13.48,5.87,113.4
"2010-12-26 00:49:30",455440,2.207,148.5,0.825,0.028,5.494,102.2735,5.102,5.946,25.95,0,109.8,13.51,5.87,110.5
"2010-12-26 00:50:00",455441,2.44,146.8,3.87,0.858,6.05,102.2735,5.102,5.934,26.78,0,109.8,13.49,5.87,108.8
"2010-12-26 00:50:30",455442,3.289,150.5,6.46,1.24,8.38,102.2735,5.102,6.143,27.18,0,109.7,13.49,5.87,112.5
"2010-12-26 00:51:00",455443,3.232,150.8,6.393,1.247,8.94,102.2735,5.102,6.208,27.14,0,109.7,13.49,5.87,112.8
"2010-12-26 00:51:30",455444,3.652,153.5,5.647,1.114,9.58,102.2738,5.102,6.148,26.72,0,109.7,13.49,5.87,115.5
"2010-12-26 00:52:00",455445,3.485,152.3,6.234,1.092,9.4,102.2783,5.114,6.167,26.5,0,109.7,13.48,5.88,114.3
"2010-12-26 00:52:30",455446,1.557,142.6,0.247,0.031,5.692,102.2862,5.134,6.058,26.49,0,109.7,13.51,5.90,104.6
"2010-12-26 00:53:00",455447,1.515,142.3,0.455,0.028,5.365,102.2905,5.145,5.973,26.44,0,109.7,13.51,5.92,104.3
"2010-12-26 00:53:30",455448,1.544,142.7,0.589,0.037,5.6,102.2905,5.145,5.975,26.58,0,109.7,13.51,5.92,104.7
"2010-12-26 00:54:00",455449,3.401,152.4,6.244,1.176,9.34,102.2905,5.145,6.146,26.79,0,109.8,13.48,5.92,114.4
"2010-12-26 00:54:30",455450,3.15,152.6,6.493,1.22,9.3,102.2893,5.142,6.193,26.46,0,109.7,13.48,5.91,114.6
"2010-12-26 00:55:00",455451,3.192,157.2,6.314,1.263,9.59,102.289,5.141,6.214,26.11,0,109.7,13.48,5.91,119.2
"2010-12-26 00:55:30",455452,3.604,159.6,5.899,1.142,9.16,102.276,5.108,6.166,27,0,109.7,13.48,5.88,121.6
"2010-12-26 00:56:00",455453,2.143,153.6,5.799,0.958,6.767,102.2735,5.102,6.183,27.46,0,109.7,13.48,5.87,115.6
"2010-12-26 00:56:30",455454,1.94,153.5,2.381,0.437,5.583,102.2735,5.102,5.971,27.78,0,109.8,13.48,5.87,115.5
"2010-12-26 00:57:00",455455,1.883,152.6,0.445,0.032,5.408,102.2642,5.078,5.962,28.33,0,109.8,13.52,5.85,114.6
"2010-12-26 00:57:30",455456,2.44,154.7,4.666,1.051,6.607,102.2413,5.019,6.004,28.68,0,109.8,13.49,5.79,116.7
"2010-12-26 00:58:00",455457,3.708,161.2,5.761,1.09,9.53,102.2399,5.016,6.16,28.79,0,109.7,13.49,5.79,123.2
"2010-12-26 00:58:30",455458,3.278,157.9,6.385,1.2,9.72,102.2401,5.016,6.152,28.2,0,109.8,13.49,5.79,119.9
"2010-12-26 00:59:00",455459,3.113,155.3,6.529,1.225,8.68,102.2396,5.015,6.083,27.48,0,109.8,13.49,5.78,117.3
"2010-12-26 00:59:30",455460,2.763,154.5,6.184,1.313,7.833,102.2399,5.016,5.975,26.97,0,109.7,13.49,5.79,116.5
"2010-12-26 01:00:00",455461,1.404,150.1,0.409,0.034,5.508,102.2495,5.04,6.013,26.36,0,109.7,13.52,5.81,112.1
"2010-12-26 01:00:30",455462,1.411,150.4,0.312,0.037,5.514,102.2747,5.105,5.93,26.38,0,109.8,13.52,5.87,112.4
"2010-12-26 01:01:00",455463,1.686,153.3,3.734,0.761,6.013,102.2761,5.108,5.949,26.81,0,109.7,13.49,5.88,115.3
"2010-12-26 01:01:30",455464,2.125,156.6,5.304,1.152,7.496,102.2775,5.112,6.085,27.02,0,109.7,13.5,5.88,118.6
"2010-12-26 01:02:00",455465,3.48,163.3,4.769,1.021,10.31,102.2796,5.117,6.193,27.09,0,109.7,13.5,5.89,125.3
"2010-12-26 01:02:30",455466,2.136,154.6,6.626,1.196,7.685,102.283,5.126,6.15,26.88,0,109.7,13.5,5.90,116.6
"2010-12-26 01:03:00",455467,3.079,159.3,6.141,1.2,8.98,102.2848,5.13,6.114,26.32,0,109.7,13.5,5.90,121.3
"2010-12-26 01:03:30",455468,1.775,151.4,5.132,1.048,6.254,102.2854,5.132,6.016,25.88,0,109.7,13.5,5.90,113.4
"2010-12-26 01:04:00",455469,1.528,150.7,5.079,0.889,6.558,102.2882,5.139,6.08,25.83,0,109.8,13.5,5.91,112.7
"2010-12-26 01:04:30",455470,1.151,148,0.536,0.004,5.537,102.2957,5.158,5.986,25.67,0,109.7,13.53,5.93,110.0
"2010-12-26 01:05:00",455471,1.152,148.2,0.49,0,5.785,102.3053,5.183,6.054,25.66,0,109.7,13.53,5.95,110.2
"2010-12-26 01:05:30",455472,2.654,155.3,6.645,1.248,8.7,102.3081,5.19,6.127,25.76,0,109.7,13.5,5.96,117.3
"2010-12-26 01:06:00",455473,2.75,157.1,6.226,1.193,9.76,102.3081,5.19,6.26,26.07,0,109.7,13.5,5.96,119.1
"2010-12-26 01:06:30",455474,2.463,155.1,6.595,1.297,8.41,102.3087,5.192,6.148,26.1,0,109.7,13.5,5.96,117.1
"2010-12-26 01:07:00",455475,1.939,153.6,6.461,1.22,7.418,102.3102,5.195,6.179,26.12,0,109.8,13.5,5.97,115.6
"2010-12-26 01:07:30",455476,1.508,150.1,4.484,0.964,5.862,102.3127,5.202,6.095,25.57,0,109.8,13.5,5.97,112.1
"2010-12-26 01:08:00",455477,1.873,152.1,6.789,1.173,7.26,102.3145,5.206,6.126,25.54,0,109.8,13.5,5.98,114.1
"2010-12-26 01:08:30",455478,1.154,146.3,0.385,0.004,5.461,102.3176,5.214,6.036,25.83,0,109.8,13.53,5.98,108.3
"2010-12-26 01:09:00",455479,1.925,150.1,5.856,1.206,6.957,102.3168,5.212,6.025,25.9,0,109.8,13.5,5.98,112.1
"2010-12-26 01:09:30",455480,2.239,151.8,6.315,1.255,8.4,102.3165,5.211,6.188,26.04,0,109.7,13.5,5.98,113.8
"2010-12-26 01:10:00",455481,2.874,152.2,6.58,1.201,9.32,102.3148,5.207,6.259,26.11,0,109.8,13.5,5.98,114.2
"2010-12-26 01:10:30",455482,2.675,152.3,6.323,1.256,9.07,102.3151,5.208,6.245,26.12,0,109.7,13.5,5.98,114.3
"2010-12-26 01:11:00",455483,1.259,144.5,0.585,0.464,5.679,102.3185,5.217,6.026,26.19,0,109.7,13.49,5.99,106.5
"2010-12-26 01:11:30",455484,2.203,151.5,7.434,1.278,7.748,102.3171,5.213,6.207,26.31,0,109.7,13.5,5.98,113.5
"2010-12-26 01:12:00",455485,1.214,145.5,2.847,0.648,5.454,102.3234,5.229,6.035,26.12,0,109.7,13.5,6.00,107.5
"2010-12-26 01:12:30",455486,0.995,141,0.874,0.037,5.364,102.3265,5.237,6.034,26.42,0,109.7,13.53,6.01,103.0
"2010-12-26 01:13:00",455487,2.051,145.7,6.654,1.278,7.453,102.324,5.231,6.1,26.4,0,109.7,13.5,6.00,107.7
"2010-12-26 01:13:30",455488,1.938,144.4,6.288,1.24,8.11,102.3158,5.21,6.262,26.5,0,109.7,13.5,5.98,106.4
"2010-12-26 01:14:00",455489,2.865,150.7,5.83,1.107,9.69,102.3082,5.19,6.229,26.73,0,109.7,13.5,5.96,112.7
"2010-12-26 01:14:30",455490,2.148,146.2,6.52,1.303,8.25,102.307,5.187,6.229,26.9,0,109.7,13.5,5.96,108.2
"2010-12-26 01:15:00",455491,0.953,141.9,1.063,0.011,5.623,102.3082,5.19,6.102,26.97,0,109.7,13.54,5.96,103.9
"2010-12-26 01:15:30",455492,2.136,147.9,7.143,1.284,7.531,102.3082,5.19,6.202,27.13,0,109.7,13.51,5.96,109.9
"2010-12-26 01:16:00",455493,1.303,145.2,5.874,0.957,6.564,102.3082,5.19,6.197,27.12,0,109.7,13.51,5.96,107.2
"2010-12-26 01:16:30",455494,0.903,142.9,2.687,0.462,5.668,102.3082,5.19,6.028,26.88,0,109.7,13.51,5.96,104.9
"2010-12-26 01:17:00",455495,1.328,142.8,4.889,1.041,6.81,102.3082,5.19,6.104,26.89,0,109.7,13.51,5.96,104.8
"2010-12-26 01:17:30",455496,1.587,140.6,6.114,1.2,6.992,102.3082,5.19,6.103,26.59,0,109.7,13.51,5.96,102.6
"2010-12-26 01:18:00",455497,2.575,147.1,5.842,1.2,9.24,102.3082,5.19,6.189,26.57,0,109.7,13.51,5.96,109.1
"2010-12-26 01:18:30",455498,1.928,146.3,6.173,1.289,8.35,102.3082,5.19,6.238,26.76,0,109.7,13.51,5.96,108.3
"2010-12-26 01:19:00",455499,1.983,146.6,7.012,1.23,7.499,102.3082,5.19,6.058,26.54,0,109.7,13.51,5.96,108.6
"2010-12-26 01:19:30",455500,0.998,144,4.367,0.694,6.066,102.3082,5.19,6.097,26.6,0,109.7,13.51,5.96,106.0
"2010-12-26 01:20:00",455501,1.712,147.5,6.12,1.214,6.573,102.3082,5.19,6.023,26.68,0,109.7,13.51,5.96,109.5
"2010-12-26 01:20:30",455502,2.158,150.7,7.589,1.305,7.769,102.3082,5.19,6.189,26.79,0,109.7,13.51,5.96,112.7
"2010-12-26 01:21:00",455503,0.871,143.5,0.794,0.014,5.472,102.2955,5.158,6.007,26.47,0,109.7,13.55,5.93,105.5
"2010-12-26 01:21:30",455504,1.781,147.1,6.909,1.22,7.321,102.2779,5.113,6.064,26.32,0,109.7,13.51,5.88,109.1
"2010-12-26 01:22:00",455505,2.448,150.2,6.656,1.243,8.72,102.2757,5.107,6.246,26.42,0,109.7,13.51,5.88,112.2
"2010-12-26 01:22:30",455506,1.042,145.3,4.444,0.676,6.753,102.2743,5.104,6.165,26.22,0,109.7,13.51,5.87,107.3
"2010-12-26 01:23:00",455507,2.054,150.9,6.683,1.229,7.795,102.2743,5.104,6.109,26.1,0,109.7,13.51,5.87,112.9
"2010-12-26 01:23:30",455508,1.062,147.2,4.86,0.769,6.086,102.2743,5.104,6.137,26.09,0,109.7,13.51,5.87,109.2
"2010-12-26 01:24:00",455509,0.679,147.2,0.641,0.032,5.06,102.2743,5.104,6.077,26.05,0,109.7,13.55,5.87,109.2
"2010-12-26 01:24:30",455510,1.835,155.1,6.769,1.274,7.573,102.2743,5.104,6.041,26.31,0,109.7,13.52,5.87,117.1
"2010-12-26 01:25:00",455511,0.669,146.5,0.321,0.004,5.575,102.2743,5.104,6.036,26.16,0,109.7,13.55,5.87,108.5
"2010-12-26 01:25:30",455512,0.621,145.9,2.403,0.033,5.865,102.2743,5.104,6.036,25.86,0,109.7,13.55,5.87,107.9
"2010-12-26 01:26:00",455513,2.328,154.9,6.004,1.169,9.01,102.2743,5.104,6.172,25.91,0,109.7,13.51,5.87,116.9
"2010-12-26 01:26:30",455514,1.464,152,6.382,1.283,7.554,102.2743,5.104,6.071,25.81,0,109.7,13.52,5.87,114.0
"2010-12-26 01:27:00",455515,0.23,150.5,2.225,0.046,5.323,102.2743,5.104,5.986,25.75,0,109.7,13.55,5.87,112.5
"2010-12-26 01:27:30",455516,0.212,150.7,1.556,0.028,4.984,102.2743,5.104,5.964,25.61,0,109.7,13.55,5.87,112.7
"2010-12-26 01:28:00",455517,1.012,158.8,6.857,1.201,7.036,102.2743,5.104,6.112,25.75,0,109.7,13.52,5.87,120.8
"2010-12-26 01:28:30",455518,0.527,157.2,4.275,0.856,5.427,102.2746,5.104,5.961,25.6,0,109.7,13.52,5.87,119.2
"2010-12-26 01:29:00",455519,0.196,156.1,0.605,0.004,4.96,102.2757,5.107,5.961,25.58,0,109.7,13.55,5.88,118.1
"2010-12-26 01:29:30",455520,0.861,158.4,6.88,1.126,6.778,102.2769,5.11,6.143,25.75,0,109.7,13.52,5.88,120.4
"2010-12-26 01:30:00",455521,0.549,157.4,4.994,0.973,5.746,102.2763,5.109,6.013,25.66,0,109.7,13.52,5.88,119.4
"2010-12-26 01:30:30",455522,0.072,150.4,2.222,0.009,5.604,102.2766,5.109,5.975,25.65,0,109.7,13.56,5.88,112.4
"2010-12-26 01:31:00",455523,0.416,146.3,4.924,0.876,5.953,102.2786,5.115,5.972,25.65,0,109.7,13.53,5.88,108.3
"2010-12-26 01:31:30",455524,1.11,149.5,7.518,1.285,7.325,102.2809,5.121,6.086,25.8,0,109.7,13.53,5.89,111.5
"2010-12-26 01:32:00",455525,1.034,149.5,6.722,1.209,7.375,102.2809,5.121,6.208,26.04,0,109.7,13.53,5.89,111.5
"2010-12-26 01:32:30",455526,0.432,150.8,5.657,0.88,6.104,102.2832,5.126,6.042,26.16,0,109.7,13.53,5.90,112.8
"2010-12-26 01:33:00",455527,0.074,148.7,1.351,0.003,4.841,102.2856,5.132,5.963,26.13,0,109.7,13.57,5.90,110.7
"2010-12-26 01:33:30",455528,0.07,146.7,1.913,0.006,4.853,102.2879,5.138,5.989,26.13,0,109.7,13.57,5.91,108.7
"2010-12-26 01:34:00",455529,0.666,148.5,6.079,1.08,6.396,102.2885,5.14,6.106,26.39,0,109.7,13.53,5.91,110.5
"2010-12-26 01:34:30",455530,0.35,145.9,5.332,0.862,5.516,102.2865,5.135,6.039,26.4,0,109.7,13.53,5.90,107.9
"2010-12-26 01:35:00",455531,-0.061,137.6,3.422,0.023,5.071,102.2848,5.131,5.968,26.19,0,109.7,13.57,5.90,99.6
"2010-12-26 01:35:30",455532,-0.076,131.5,1.173,0,4.76,102.2812,5.121,5.956,26.14,0,109.7,13.57,5.89,93.5
"2010-12-26 01:36:00",455533,1.184,131.3,8.26,1.281,7.229,102.2651,5.08,6.081,26.15,0,109.7,13.54,5.85,93.3
"2010-12-26 01:36:30",455534,0.357,119.2,6.006,0.967,6.234,102.2611,5.07,6.123,26.1,0,109.7,13.54,5.84,81.2
"2010-12-26 01:37:00",455535,-0.138,92.1,5.089,0.007,5.188,102.2547,5.054,5.921,25.82,0,109.7,13.57,5.82,54.1
"2010-12-26 01:37:30",455536,-0.137,78.11,5.11,0.006,5.065,102.2437,5.025,5.907,25.79,0,109.7,13.57,5.80,40.1
"2010-12-26 01:38:00",455537,0.652,67.71,8.4,1.193,6.138,102.2533,5.05,5.897,25.75,0,109.7,13.54,5.82,29.7
"2010-12-26 01:38:30",455538,1.308,69.13,8.54,1.231,8.33,102.2672,5.086,6.125,25.99,0,109.7,13.54,5.86,31.1
"2010-12-26 01:39:00",455539,0.818,59.56,8.44,1.252,7.317,102.2675,5.086,6.029,25.84,0,109.7,13.54,5.86,21.6
"2010-12-26 01:39:30",455540,-0.128,81.2,12.58,0.025,5.188,102.2672,5.086,5.905,25.92,0,109.7,13.57,5.86,43.2
"2010-12-26 01:40:00",455541,-0.113,79.98,8.23,0.029,5.03,102.2692,5.091,5.911,26.17,0,109.7,13.58,5.86,42.0
"2010-12-26 01:40:30",455542,-0.135,81.2,4.661,0.006,5.182,102.269,5.09,5.926,26.55,0,109.7,13.58,5.86,43.2
"2010-12-26 01:41:00",455543,-0.132,91.8,5.37,0.004,6.277,102.2687,5.089,6.02,26.96,0,109.7,13.57,5.86,53.8
"2010-12-26 01:41:30",455544,1.009,107.2,4.253,1.231,7.939,102.2721,5.098,5.983,26.81,0,109.7,13.54,5.87,69.2
"2010-12-26 01:42:00",455545,-0.013,105.1,1.4,0.035,5.223,102.2727,5.1,5.995,26.64,0,109.7,13.57,5.87,67.1
"2010-12-26 01:42:30",455546,-0.024,100.6,3.621,0.045,4.975,102.2736,5.102,5.915,26.36,0,109.7,13.57,5.87,62.6
"2010-12-26 01:43:00",455547,-0.003,96.6,2.536,0.027,5.182,102.2745,5.104,5.979,26.09,0,109.7,13.57,5.87,58.6
"2010-12-26 01:43:30",455548,1.131,104.1,5.655,1.291,7.37,102.2747,5.105,6.002,26.15,0,109.7,13.54,5.87,66.1
"2010-12-26 01:44:00",455549,0.036,111.8,5.723,0.04,5.133,102.2747,5.105,6.003,26.16,0,109.7,13.57,5.87,73.8
"2010-12-26 01:44:30",455550,0.073,113.6,4.379,0.035,5.01,102.275,5.106,5.923,26.03,0,109.7,13.57,5.88,75.6
"2010-12-26 01:45:00",455551,0.119,114.3,5.177,0.047,5.072,102.275,5.106,5.934,26.08,0,109.7,13.57,5.88,76.3
"2010-12-26 01:45:30",455552,1.613,119.8,5.58,1.31,8.06,102.275,5.106,6.172,26.92,0,109.7,13.54,5.88,81.8
"2010-12-26 01:46:00",455553,2.029,129.9,4.59,1.194,9.02,102.2725,5.099,6.095,27.2,0,109.7,13.54,5.87,91.9
"2010-12-26 01:46:30",455554,0.256,135.9,3.044,0.006,5.187,102.2615,5.071,5.918,27.13,0,109.7,13.58,5.84,97.9
"2010-12-26 01:47:00",455555,0.376,141.8,1.315,0.037,5.065,102.2555,5.056,6.002,27.3,0,109.7,13.58,5.83,103.8
"2010-12-26 01:47:30",455556,1.533,151.2,6.064,1.235,7.298,102.2538,5.051,5.984,27.07,0,109.7,13.55,5.82,113.2
"2010-12-26 01:48:00",455557,0.266,141,3.446,0.026,4.88,102.2422,5.022,5.941,27.04,0,109.7,13.58,5.79,103.0
"2010-12-26 01:48:30",455558,0.368,143.4,1.555,0.092,5.301,102.2411,5.019,6.008,27.2,0,109.7,13.58,5.79,105.4
"2010-12-26 01:49:00",455559,1.521,143,8.45,1.294,7.182,102.2411,5.019,5.945,27.35,0,109.7,13.55,5.79,105.0